When you browse on this site, cookies collect data to enhance your experience and personalize the content and advertising you see.
Visit our Privacy Policy to learn more. By continuing to use the site, you agree to this use of cookies and data.
  • en France
  • Liste des pays
  • À 7 jours
  • Température de l'eau
  • Carte météo
  • Widgets météo
  • user-avatar
    Se connecter

    Météo par heure à Burutu

    Ce jour, 5 Juin, Vendredi

    Heure Température Précipitation Vent Pression Humidité
    00:00 +28°C° 0 mm 1 m/s 759 mmHg 89%
    01:00 +27°C° 0.1 mm 1 m/s 759 mmHg 90%
    02:00 +27°C° 0.1 mm 1 m/s 758 mmHg 90%
    03:00 +27°C° 0.1 mm 1 m/s 758 mmHg 90%
    04:00 +27°C° 0 mm 1 m/s 759 mmHg 90%
    05:00 +28°C° 0 mm 1 m/s 759 mmHg 89%
    06:00 +28°C° 0 mm 1 m/s 759 mmHg 88%
    07:00 +29°C° 0 mm 2 m/s 759 mmHg 82%
    08:00 +30°C° 0 mm 2 m/s 760 mmHg 75%
    09:00 +33°C° 0 mm 3 m/s 760 mmHg 69%
    10:00 +33°C° 0.4 mm 3 m/s 759 mmHg 69%
    11:00 +33°C° 0.4 mm 3 m/s 759 mmHg 68%
    12:00 +33°C° 0.4 mm 3 m/s 759 mmHg 68%
    13:00 +33°C° 1 mm 4 m/s 758 mmHg 70%
    14:00 +32°C° 1 mm 4 m/s 758 mmHg 73%
    15:00 +32°C° 1 mm 4 m/s 757 mmHg 75%
    16:00 +30°C° 0.1 mm 4 m/s 758 mmHg 78%
    17:00 +29°C° 0.1 mm 4 m/s 758 mmHg 81%
    18:00 +29°C° 0.1 mm 3 m/s 759 mmHg 84%
    19:00 +29°C° 0 mm 3 m/s 759 mmHg 85%
    20:00 +28°C° 0 mm 3 m/s 759 mmHg 86%
    21:00 +28°C° 0 mm 3 m/s 760 mmHg 87%
    22:00 +28°C° 0 mm 2 m/s 760 mmHg 88%
    23:00 +28°C° 0 mm 2 m/s 760 mmHg 89%

    Demain, 6 Juin, Samedi

    Heure Température Précipitation Vent Pression Humidité
    00:00 +27°C° 0 mm 1 m/s 759 mmHg 90%
    01:00 +27°C° 0 mm 1 m/s 759 mmHg 90%
    02:00 +27°C° 0 mm 1 m/s 759 mmHg 90%
    03:00 +25°C° 0 mm 0 m/s 759 mmHg 91%
    04:00 +27°C° 0.1 mm 1 m/s 759 mmHg 90%
    05:00 +27°C° 0.1 mm 1 m/s 759 mmHg 90%
    06:00 +27°C° 0.1 mm 1 m/s 760 mmHg 89%
    07:00 +28°C° 0 mm 1 m/s 760 mmHg 83%
    08:00 +30°C° 0 mm 2 m/s 760 mmHg 77%
    09:00 +31°C° 0 mm 2 m/s 761 mmHg 71%
    10:00 +32°C° 0 mm 2 m/s 760 mmHg 68%
    11:00 +33°C° 0 mm 3 m/s 760 mmHg 66%
    12:00 +34°C° 0 mm 3 m/s 759 mmHg 63%
    13:00 +34°C° 0.1 mm 3 m/s 759 mmHg 65%
    14:00 +33°C° 0.1 mm 4 m/s 758 mmHg 66%
    15:00 +33°C° 0.1 mm 4 m/s 757 mmHg 68%
    16:00 +32°C° 0.1 mm 4 m/s 758 mmHg 72%
    17:00 +30°C° 0.1 mm 3 m/s 758 mmHg 76%
    18:00 +29°C° 0.1 mm 3 m/s 758 mmHg 80%
    19:00 +29°C° 0 mm 3 m/s 758 mmHg 81%
    20:00 +28°C° 0 mm 3 m/s 759 mmHg 82%
    21:00 +28°C° 0 mm 3 m/s 759 mmHg 83%
    22:00 +28°C° 0.4 mm 3 m/s 759 mmHg 84%
    23:00 +28°C° 0.4 mm 3 m/s 759 mmHg 85%

    Après-demain, 7 Juin, Dimanche

    Heure Température Précipitation Vent Pression Humidité
    00:00 +28°C° 0.4 mm 3 m/s 758 mmHg 86%
    01:00 +28°C° 0.6 mm 2 m/s 758 mmHg 87%
    02:00 +28°C° 0.6 mm 2 m/s 758 mmHg 88%
    03:00 +28°C° 0.6 mm 1 m/s 758 mmHg 90%
    04:00 +28°C° 0.8 mm 1 m/s 758 mmHg 89%
    05:00 +28°C° 0.8 mm 1 m/s 759 mmHg 89%
    06:00 +28°C° 0.8 mm 1 m/s 759 mmHg 88%
    07:00 +28°C° 0.3 mm 2 m/s 759 mmHg 85%
    08:00 +29°C° 0.3 mm 2 m/s 760 mmHg 82%
    09:00 +30°C° 0.3 mm 2 m/s 760 mmHg 79%
    10:00 +29°C° 2 mm 2 m/s 760 mmHg 82%
    11:00 +28°C° 2 mm 3 m/s 759 mmHg 84%
    12:00 +28°C° 2 mm 3 m/s 759 mmHg 87%
    13:00 +28°C° 0.1 mm 4 m/s 758 mmHg 84%
    14:00 +29°C° 0.1 mm 4 m/s 757 mmHg 82%
    15:00 +29°C° 0.1 mm 5 m/s 757 mmHg 80%
    16:00 +29°C° 0.1 mm 4 m/s 757 mmHg 83%
    17:00 +28°C° 0.1 mm 4 m/s 758 mmHg 85%
    18:00 +27°C° 0.1 mm 4 m/s 758 mmHg 88%
    19:00 +27°C° 0.1 mm 3 m/s 759 mmHg 89%
    20:00 +27°C° 0.1 mm 3 m/s 759 mmHg 90%
    21:00 +27°C° 0.1 mm 3 m/s 759 mmHg 91%
    22:00 +27°C° 0 mm 3 m/s 759 mmHg 91%
    23:00 +27°C° 0 mm 3 m/s 759 mmHg 91%

    8 Juin, Lundi

    Heure Température Précipitation Vent Pression Humidité
    00:00 +27°C° 0 mm 3 m/s 759 mmHg 91%
    01:00 +27°C° 0.5 mm 3 m/s 758 mmHg 91%
    02:00 +27°C° 0.5 mm 2 m/s 758 mmHg 91%
    03:00 +27°C° 0.5 mm 2 m/s 758 mmHg 91%
    04:00 +27°C° 0 mm 2 m/s 758 mmHg 91%
    05:00 +27°C° 0 mm 2 m/s 758 mmHg 90%
    06:00 +27°C° 0 mm 2 m/s 758 mmHg 89%
    07:00 +28°C° 0.1 mm 2 m/s 759 mmHg 85%
    08:00 +29°C° 0.1 mm 2 m/s 759 mmHg 80%
    09:00 +30°C° 0.1 mm 2 m/s 760 mmHg 75%
    10:00 +31°C° 0.8 mm 3 m/s 759 mmHg 74%
    11:00 +31°C° 0.8 mm 3 m/s 759 mmHg 72%
    12:00 +32°C° 0.8 mm 4 m/s 758 mmHg 71%
    13:00 +30°C° 1 mm 4 m/s 758 mmHg 76%
    14:00 +29°C° 1 mm 5 m/s 758 mmHg 80%
    15:00 +28°C° 1 mm 5 m/s 757 mmHg 85%
    16:00 +28°C° 0.1 mm 4 m/s 757 mmHg 86%
    17:00 +28°C° 0.1 mm 4 m/s 757 mmHg 87%
    18:00 +27°C° 0.1 mm 3 m/s 758 mmHg 88%
    19:00 +27°C° 0 mm 2 m/s 758 mmHg 88%
    20:00 +27°C° 0 mm 2 m/s 758 mmHg 89%
    21:00 +27°C° 0 mm 1 m/s 758 mmHg 89%
    22:00 +27°C° 0 mm 1 m/s 758 mmHg 89%
    23:00 +27°C° 0 mm 1 m/s 757 mmHg 89%

    9 Juin, Mardi

    Heure Température Précipitation Vent Pression Humidité
    00:00 +27°C° 0 mm 1 m/s 757 mmHg 89%
    01:00 +27°C° 0 mm 1 m/s 757 mmHg 90%
    02:00 +26°C° 0 mm 1 m/s 757 mmHg 91%
    03:00 +26°C° 0 mm 1 m/s 758 mmHg 92%
    04:00 +26°C° 0 mm 1 m/s 758 mmHg 91%
    05:00 +26°C° 0 mm 1 m/s 758 mmHg 91%
    06:00 +27°C° 0 mm 1 m/s 758 mmHg 90%
    07:00 +28°C° 0.1 mm 1 m/s 759 mmHg 84%
    08:00 +29°C° 0.1 mm 1 m/s 759 mmHg 79%
    09:00 +30°C° 0.1 mm 1 m/s 760 mmHg 73%
    10:00 +31°C° 0 mm 2 m/s 759 mmHg 69%
    11:00 +33°C° 0 mm 3 m/s 758 mmHg 64%
    12:00 +34°C° 0 mm 3 m/s 758 mmHg 60%
    13:00 +34°C° 0.1 mm 4 m/s 757 mmHg 63%
    14:00 +33°C° 0.1 mm 4 m/s 757 mmHg 65%
    15:00 +33°C° 0.1 mm 5 m/s 757 mmHg 68%
    16:00 +32°C° 0 mm 4 m/s 757 mmHg 73%
    17:00 +30°C° 0 mm 4 m/s 757 mmHg 78%
    18:00 +29°C° 0 mm 3 m/s 757 mmHg 83%
    19:00 +28°C° 0 mm 3 m/s 757 mmHg 85%
    20:00 +28°C° 0 mm 3 m/s 758 mmHg 87%
    21:00 +28°C° 0 mm 3 m/s 758 mmHg 89%
    22:00 +28°C° 0.2 mm 3 m/s 758 mmHg 89%
    23:00 +27°C° 0.2 mm 3 m/s 758 mmHg 90%

    10 Juin, Mercredi

    Heure Température Précipitation Vent Pression Humidité
    00:00 +27°C° 0.2 mm 3 m/s 758 mmHg 90%
    01:00 +27°C° 0.5 mm 3 m/s 758 mmHg 90%
    02:00 +27°C° 0.5 mm 3 m/s 757 mmHg 90%
    03:00 +27°C° 0.5 mm 3 m/s 757 mmHg 89%
    04:00 +27°C° 0.5 mm 3 m/s 758 mmHg 90%
    05:00 +27°C° 0.5 mm 3 m/s 758 mmHg 90%
    06:00 +27°C° 0.5 mm 3 m/s 758 mmHg 90%
    07:00 +28°C° 0.3 mm 4 m/s 759 mmHg 85%
    08:00 +29°C° 0.3 mm 4 m/s 759 mmHg 81%
    09:00 +30°C° 0.3 mm 4 m/s 759 mmHg 76%
    10:00 +30°C° 0.9 mm 5 m/s 759 mmHg 75%
    11:00 +32°C° 0.9 mm 5 m/s 759 mmHg 74%
    12:00 +32°C° 0.9 mm 5 m/s 758 mmHg 73%
    13:00 +32°C° 0.4 mm 5 m/s 758 mmHg 73%
    14:00 +32°C° 0.4 mm 5 m/s 757 mmHg 73%
    15:00 +30°C° 0.4 mm 5 m/s 757 mmHg 73%
    16:00 +30°C° 0 mm 5 m/s 757 mmHg 75%
    17:00 +29°C° 0 mm 4 m/s 757 mmHg 78%
    18:00 +28°C° 0 mm 4 m/s 757 mmHg 81%
    19:00 +28°C° 0 mm 4 m/s 758 mmHg 82%
    20:00 +27°C° 0 mm 3 m/s 758 mmHg 84%
    21:00 +27°C° 0 mm 3 m/s 759 mmHg 85%
    22:00 +27°C° 0 mm 3 m/s 758 mmHg 86%
    23:00 +27°C° 0 mm 3 m/s 758 mmHg 86%
    Voir plus